EW8100 Weather Reports


time (UTC)temp
F
wind
direction
speed
knots
gust
knots
rain 1hr
in
rain 24hr
in
rain mn
in
humidity
%
barometer
mb
20260505081517 64 177 8.7 9.6 0.00 0.00 0.00 72 1006.3
20260505080516 64 169 7.8 9.6 0.00 0.00 0.00 71 1006.2
20260505075516 64 168 8.7 10.4 0.00 0.00 0.00 71 1006.3
20260505074516 64 173 8.7 9.6 0.00 0.00 0.00 70 1006.4
20260505073556 65 178 8.7 9.6 0.00 0.00 0.00 69 1006.6
20260505072542 65 179 7.0 8.7 0.00 0.00 0.00 68 1006.8
20260505071516 65 176 7.8 8.7 0.00 0.00 0.00 67 1006.9
20260505070516 66 169 7.0 7.8 0.00 0.00 0.00 65 1007.2
20260505065517 67 177 7.0 8.7 0.00 0.00 0.00 63 1007.4
20260505064516 68 189 9.6 18.2 0.00 0.00 0.00 61 1007.3
20260505063516 69 171 7.0 9.6 0.00 0.00 0.00 58 1007.3
20260505062516 70 166 7.0 11.3 0.00 0.00 0.00 62 1006.8
20260505061516 71 187 7.8 12.2 0.00 0.00 0.00 60 1005.2
20260505060516 71 191 7.8 12.2 0.00 0.00 0.00 60 1005.2
20260505055517 71 191 7.8 11.3 0.00 0.00 0.00 60 1004.9
20260505054516 71 190 7.8 14.8 0.00 0.00 0.00 59 1004.8
20260505053516 72 190 8.7 13.9 0.00 0.00 0.00 59 1004.9
20260505052516 72 187 7.8 11.3 0.00 0.00 0.00 58 1004.6
20260505051517 72 187 8.7 13.9 0.00 0.00 0.00 58 1004.4
20260505050517 72 194 8.7 12.2 0.00 0.00 0.00 58 1004.3
20260505041536 73 187 8.7 13.0 0.00 0.00 0.00 57 1003.8
20260505040516 73 189 8.7 13.9 0.00 0.00 0.00 56 1004.0
20260505035536 73 187 7.8 12.2 0.00 0.00 0.00 56 1004.2
20260505034516 74 186 7.8 10.4 0.00 0.00 0.00 56 1004.4
20260505033556 74 187 8.7 11.3 0.00 0.00 0.00 56 1004.5
20260505032517 74 186 7.8 11.3 0.00 0.00 0.00 55 1004.4
20260505031516 74 180 7.8 10.4 0.00 0.00 0.00 55 1004.4
20260505030517 75 183 7.8 9.6 0.00 0.00 0.00 54 1004.4
20260505025516 75 184 7.8 10.4 0.00 0.00 0.00 53 1004.3
20260505024517 75 187 7.8 11.3 0.00 0.00 0.00 53 1004.2
20260505023517 75 185 7.8 11.3 0.00 0.00 0.00 53 1004.1
20260505022516 75 187 7.8 11.3 0.00 0.00 0.00 53 1003.8
20260505021516 76 185 7.8 11.3 0.00 0.00 0.00 53 1003.6
20260505020542 76 187 7.8 10.4 0.00 0.00 0.00 53 1003.3
20260505015556 76 183 7.8 12.2 0.00 0.00 0.00 53 1003.2
20260505014516 76 186 7.8 11.3 0.00 0.00 0.00 53 1003.2
20260505013517 76 182 7.8 11.3 0.00 0.00 0.00 53 1003.0
20260505012557 76 181 7.8 11.3 0.00 0.00 0.00 54 1002.9
20260505011516 76 184 7.8 9.6 0.00 0.00 0.00 54 1002.9
20260505010516 76 182 7.8 9.6 0.00 0.00 0.00 53 1002.9
20260505005516 77 182 7.8 9.6 0.00 0.00 0.00 53 1002.9
20260505004517 77 182 7.8 8.7 0.00 0.00 0.00 52 1002.7
20260505003517 78 183 7.8 10.4 0.00 0.00 0.00 51 1002.5
20260505002517 78 184 7.8 10.4 0.00 0.00 0.00 51 1002.6
20260505001516 78 185 7.8 10.4 0.00 0.00 0.00 51 1002.5
20260505000516 79 188 8.7 12.2 0.00 0.00 0.00 50 1002.5
20260504235516 79 187 7.8 12.2 0.00 0.00 0.00 50 1002.4
20260504234516 79 186 7.8 9.6 0.00 0.00 0.00 49 1002.4
20260504233537 80 189 8.7 10.4 0.00 0.00 0.00 49 1002.4
20260504232517 79 186 8.7 13.0 0.00 0.00 0.00 49 1002.6
20260504231541 79 190 7.8 12.2 0.00 0.00 0.00 49 1002.8
20260504230517 79 190 9.6 12.2 0.00 0.00 0.00 49 1002.7
20260504225537 79 189 8.7 13.0 0.00 0.00 0.00 50 1002.9
20260504224532 79 189 8.7 10.4 0.00 0.00 0.00 49 1002.8
20260504223516 80 184 8.7 10.4 0.00 0.00 0.00 49 1002.9
20260504222517 80 189 8.7 13.9 0.00 0.00 0.00 48 1003.0
20260504221517 80 185 8.7 12.2 0.00 0.00 0.00 50 1003.0
20260504220516 80 185 8.7 13.0 0.00 0.00 0.00 50 1003.0
20260504215537 80 188 8.7 13.0 0.00 0.00 0.00 50 1003.0
20260504214516 80 191 8.7 12.2 0.00 0.00 0.00 52 1003.1
20260504213517 79 181 9.6 12.2 0.00 0.00 0.00 53 1003.2
20260504212537 79 187 8.7 12.2 0.00 0.00 0.00 59 1003.2
20260504211516 78 183 9.6 12.2 0.00 0.00 0.00 59 1003.4
20260504210536 77 189 8.7 11.3 0.00 0.00 0.00 60 1003.5
20260504205537 77 182 8.7 12.2 0.00 0.00 0.00 60 1003.4
20260504204516 77 183 8.7 12.2 0.00 0.00 0.00 60 1003.6
20260504203537 76 185 9.6 13.0 0.00 0.00 0.00 59 1003.8
20260504202516 76 190 8.7 13.0 0.00 0.00 0.00 59 1003.9
20260504201517 75 166 10.4 15.6 0.00 0.00 0.00 59 1004.1
20260504200016 73 183 8.7 12.2 0.00 0.00 0.00 65 1004.2
20260504195036 72 185 7.8 12.2 0.00 0.00 0.00 64 1004.4
20260504194016 71 180 8.7 12.2 0.00 0.00 0.00 66 1004.5
20260504193016 70 180 8.7 12.2 0.00 0.00 0.00 69 1004.7
20260504192021 69 181 7.8 10.4 0.00 0.00 0.00 70 1005.0
20260504191017 68 177 9.6 13.9 0.00 0.00 0.00 72 1004.5
20260504190037 66 168 10.4 14.8 0.00 0.00 0.00 71 1004.3
20260504185016 66 164 10.4 15.6 0.00 0.00 0.00 71 1004.5
20260504184036 66 171 9.6 13.0 0.00 0.00 0.00 70 1005.8
20260504183017 67 175 8.7 13.0 0.00 0.00 0.00 69 1005.8
20260504182016 67 174 8.7 11.3 0.00 0.00 0.00 70 1005.9
20260504181016 66 179 9.6 13.0 0.00 0.00 0.00 69 1005.6
20260504180016 66 172 9.6 13.0 0.00 0.00 0.00 69 1005.6
20260504175017 66 175 8.7 13.0 0.00 0.00 0.00 69 1005.7
20260504174037 66 174 8.7 11.3 0.00 0.00 0.00 70 1005.8
20260504173016 66 182 7.8 11.3 0.00 0.00 0.00 69 1006.2
20260504171017 65 184 8.7 11.3 0.00 0.00 0.00 69 1006.3
20260504151016 66 180 7.8 12.2 0.00 0.00 0.00 62 1007.7
20260504141016 67 180 8.7 13.0 0.00 0.00 0.00 61 1008.0
20260504110139 61 174 7.8 8.7 0.00 0.00 0.00 72 1008.6